Погода в Зимовники

Погода в Зимовники : погода сейчас, прогноз погоды и архив. Всё, что Вы хотите узнать о погоде в Зимовники!

Поиск расширенной информации на нашем сайте:

Другие новости

Новости СМИ2

Главная страница сайта

Новости сайта

03.07.2017

Напоминаем, что на нашем специализированном сайте Метеоцентр.Азия вы можете получить высокодетализированные автоматические прогнозы погоды по пунктам России, СНГ и мира в авиационном формате (включающие направление и скорость ветра, видимость, явления погоды, количество и форму облачности, нижнюю и верхнюю границу облачности).


Погода в Зимовники - сегодня

Время (UTC), дата Ветер
(°,м/с) 
Видим.   Явления Облачность Т
(°С)
Тd
(°С)
f(%) Тe
(°С)
Pmin
(гПа)
dP
(гПа)
Po
(мм)
O2
(г/м3)
Тmin Tmax R s Состояние
почвы
15 17.10.17 280 (З) 10 км    10/6 300 м средняя 
[Sc|Ac und]
+12.4 +7.7 73 +12  1016.4  0.2  756  290    +14.5       
18 17.10.17 300 (СЗ) 10 км    10/4 300 м средняя 
[Sc|Ac und]
+11.5 +7.8 78 +11  1018.1  1.5  757  291           
21 17.10.17 270 (З) 4000 м  дымка  10/10 300 м 
[Sc]
+9 +7.3 89 +9  1019.5  1.4  758  294           
00 18.10.17 280 (З) 10 км    10/10 300 м 
[Sc]
+10.1 +8.3 89 +10  1021.1  1.6  759  294           
03 18.10.17 280 (З) 2000 м  дымка  5/0 средняя 
[Ac trans]
+7.2 +6.3 94 +8  1022.7  1.5  760  297  +7.2         
06 18.10.17 230 (ЮЗ) 1000 м  дымка  10/10 300 м 
[St]
+8.5 +7.9 96 +10  1024.3  1.6  762  296  +5.9         
09 18.10.17 250 (З) 10 км    9/0 верхняя 
[Cs]
+11.9 +9.1 83 +12  1023.7  -0.4  761  292           
12 18.10.17 250 (З) 10 км    9/0 верхняя 
[Cs]
+15.6 +8.1 61 +16  1022.7  -0.9  761  289           
15 18.10.17 200 (Ю) 10 км    9/0 верхняя 
[Cs]
+10.1 +7.4 83 +11  1022.7  -0.2  760  294    +15.7       
18 18.10.17 180 (Ю) 4000 м  дымка  4/0 верхняя 
[Cs]
+7.8 +6.3 90 +9  1022.5  -0.2  760  297           
21 18.10.17 180 (Ю) 4000 м  дымка  ясно 
+6.7 +5.6 93 +8  1021.8  -0.8  760  298           
00 19.10.17 тихо ()   4000 м  дымка  10/10 300 м 
[Sc]
+7.7 +7.1 96 +8  1021.5  -0.2  760  296           
03 19.10.17 тихо ()   0500 м  туман  ?/?  
+10.8 +10.8 100 +13  1021.2  -0.2  759  292  +6.4        сухая 
06 19.10.17 240 (ЮЗ) 4000 м  дымка{туман}  10/10 300 м 
[Sc]
+13.5 +12.4 93 +18  1021.2  759  289           
09 19.10.17 240 (ЮЗ) 10 км    10/8 600 м средняя 
[Sc|Ac und]
+15.6 +11.5 77 +19  1020.3  -0.8  759  287           
12 19.10.17 250 (З) 10 км    ясно 
+18.9 +9.2 53 +20  1018.7  -1.5  758  284           
15 19.10.17 230 (ЮЗ) 10 км    ясно 
+13.8 +9.7 76 +16  1018.8  -0.1  758  289    +19       
18 19.10.17 200 (Ю) 10 км    ясно 
+10.7 +8.9 89 +12  1018.8  -0.1  758  292           
21 19.10.17 250 (З) 2000 м  дымка  9/0 средняя 
[Ac trans]
+9.9 +9.1 95 +10  1018.5  -0.3  757  293           
00 20.10.17 230 (ЮЗ) 2000 м  дымка  10/0 средняя 
[Ac und]
+11.3 +10.7 96 +14  1018  -0.5  757  291           
03 20.10.17 270 (З) 2000 м  дымка  10/10 300 м 
[Sc]
+11.8 +11 95 +15  1018.2  0.3  757  290  +9.1         
06 20.10.17 260 (З) 1000 м  дымка  10/10 300 м 
[St]
+12.2 +11.4 95 +16  1018.9  0.7  758  290           
09 20.10.17 280 (З) 10 км    10/10 300 м 
[Sc]
+13.4 +11.3 87 +18  1018.9  758  289           
12 20.10.17 270 (З) 4000 м  дымка  10/10 300 м 
[Sc]
+13.9 +12.1 89 +19  1018.6  -0.2  758  288           
15 20.10.17 260 (З) 4000 м  дымка  10/10 300 м 
[Sc]
+12.9 +11.2 89 +17  1019.1  0.4  758  289    +14       
Время (UTC), дата Ветер
(°,м/с) 
Видим.   Явления Облачность Т
(°С)
Тd
(°С)
f(%) Тe
(°С)
Pmin
(гПа)
dP
(гПа)
Po
(мм)
O2
(г/м3)
Тmin Tmax R s Состояние
почвы

Для получения пояснительной информации подведите курсор к названию столбца.

ПОГОДА в Зимовники - архив

Всё, что Вы хотите узнать о погоде в Зимовники - удобно и подробно!

Выберите нужную дату (начиная с 1 января 2015* года) и нажмите кнопку "Найти".
Будут отображены архивные сводки погоды по пункту Зимовники, начиная с указанной даты.


Отображать данные в формате CSV (для использования в таблицах Excel)


Внимание! Наш архив погоды предназначен исключительно для личного некоммерческого использования в познавательных целях. Если Вам необходимы официальные справки о состоянии погоды (для производственных, юридических, коммерческих и т.п. целей), обращайтесь в органы Росгидромета.

*Примечание: данная дата относится к архиву по метеостанциям СССР (Россия, СНГ, Балтия).
Архив по метеостанциям Зарубежной Европы и Азии (кроме Китая) хранится 10 дней, по другим регионам земного шара (Китай, Африка, Америка, Австралия, Океания) - 1 день.

Зимовники - район местоположения метеостанции


Название, широта, долгота, высота метеостанции:
Зимовники 47.2°ш. 42.5°д. 72 м над ур. моря [Российская Федерация]

Дополнительная информация

В oтличие oт бoльшинства пoгoдных сайтoв мы публикуем пoдрoбную метеoинфoрмацию в детальнoм прoфессиoнальнoм фoрмате.

Характеристики температуры и влажнoсти вoздуха измеряются на высoте 2 м в тени вдали oт зданий и деревьев.
Скoрoсть ветра измеряется на высoте 10 м (на урoвне рoста челoвека скoрoсть ветра ниже в 1.5-2 раза). Если метеoстанция нахoдится в гoрoде или в лесу, тo скoрoсть ветра занижена на 2-4 м/с пo сравнению с oткрытым местoм. Скoрoсть ветра над акватoриями крупных рек и oзёр, а также на вершинах хoлмoв на 2-5 м/с выше, чем в oбычных услoвиях.
Атмoсфернoе давление в разных тoчках местнoсти мoжет значительнo oтличаться oт давления на метеoстанции, в зависимoсти oт услoвий рельефа (при пoдъёме на 10 м давление пoнижается примернo на 1 мм рт.ст.).